Showing default

QIANFAN-29, 61562

Orbit data source: Space-Track

QIANFAN-29, 61562 is a Chinese payload satellite in LEO that was launched on Tue, 15 Oct 2024 UTC via a CHANG ZHENG 6A launch vehicle from the Taiyaun Space Center, China (TSC). Payload-class satellites include a variety of spacecraft equipped with specific instruments for various scientific and technological missions. These include communications satellites like Starlink; space stations such as the ISS; scientific satellites like the Hubble; Earth observation satellites from companies like Planet Labs, Umbra, and HawkEye 360; GPS; miniature CubeSats for education and research; and military/defense satellites.

Loading next visibility...
Identifier
61562, 2024-185L
Orbit
LEO
Country
Flag of CNCN / PRC
Related business
Manufacturer
GESIH/SECM
Mission
Operational Commercial Communications
Bus & Motor
QIANFAN, Unknown motor
Mass
267 kg wet, ~267 kg dry
Launch date (UTC)
Icon of a cake. It is the launch day of the satellite!2024-10-15 (1 year ago)
Launch vehicle
CHANG ZHENG 6A
Launch site
Taiyaun Space Center, China (TSC)
Object type
Payload
Rocket body
Debris
Shape & HBR
Box + 1 Pan, 5.0 m
Radar Cross Section
13.200 m², Large (>1 m²)

Expand to show TLE details & history
Last TLE update: 11 hours ago

TLE from 11 hours ago
0 QIANFAN-29
1 61562U 24185L   25287.93260073  .00000255  00000-0  37627-3 0  9994
2 61562  88.9732  87.3837 0009097 212.8299 147.2289 13.50980605 59850
Epoch: 2025-10-14T22:22Z
TLE epoch observation values (Epoch: 2025-10-14T22:22:56.703Z)
Latitude
0.0001°
Longitude
87.93351°
Altitude
1,077.305 km
Speed
7.311 km/s
True Right ascension
05h 49m 32s
True Declination
0° 00' 00"
Sunlit
Object was in daylight at epoch
Visualization orbit readout
Latitude
Unknown
Longitude
Unknown
Altitude
Unknown
Speed
Unknown
Apparent Right ascension
Unknown
Apparent Declination
Unknown
Sunlit
N/A
Visualization observer readout
Local Sidereal Time
03:49:32
Azimuth
Unknown
Elevation
Unknown
Doppler factor
Unknown
Orbital elements
Apogee altitude
1,072.476 km
Perigee altitude
1,058.932 km
Semi-major axis
7,443.841 km
Eccentricity
0.00091
Inclination
88.9732°
RAAN
87.3837°
Arg. of periapsis
212.8299°
True anomaly
147.28527°
Mean anomaly
147.2289°
Eccentric anomaly
147.25709°
Mean motion
3.37946 °/min
Orbital period
106.53 mins
BSTAR
0.00037627
Loading maneuver chart data...
Computing Atmospheric mass density...
Loading historical data...
Loading historical data...
Loading historical data...
Loading historical data...
Loading historical data...
Loading historical data...
Loading historical data...

Documentation

Showing up to 5 results
|